Weather History for KMOT - April, 2013

Change the Weather History Date:

Friday, April 26, 2013

  Actual Average Record
Temperature  
Mean Temperature 49 °F 48 °F  
Max Temperature 63 °F 60 °F 90 °F (1910)
Min Temperature 34 °F 36 °F 12 °F (1931)
Degree Days  
Heating Degree Days 16 17  
Month to date heating degree days 997 588  
Since 1 July heating degree days 9307 8303  
Cooling Degree Days 0 0  
Month to date cooling degree days 0 0  
Year to date cooling degree days 0 0  
Moisture  
Dew Point 34 °F    
Average Humidity 60    
Maximum Humidity 89    
Minimum Humidity 30    
Precipitation  
Precipitation 0.00 in 0.05 in 1.85 in (1975)
Month to date precipitation 0.47 0.92  
Year to date precipitation 1.62 2.67  
Sea Level Pressure  
Sea Level Pressure 29.96 in    
Wind  
Wind Speed 8 mph (SSW)    
Max Wind Speed 16 mph    
Max Gust Speed 21 mph    
Visibility 10 miles    
Events      
T = Trace of Precipitation, MM = Missing Value Source: NWS Daily Summary

Daily Weather History Graph

Daily Weather History Graph

Search for Another Location

Airport or City:

Trip Planner

Search our weather history database for the weather conditions in past years. The results will help you decide how hot, cold, wet, or windy it might be!

Date:

Astronomy

Apr. 26, 2013 Rise Set
Actual Time 6:34 AM CDT 8:52 PM CDT
Civil Twilight 6:00 AM CDT 9:26 PM CDT
Nautical Twilight 5:17 AM CDT 10:09 PM CDT
Astronomical Twilight 4:28 AM CDT 10:58 PM CDT
Moon 10:23 PM CDT (4/26) 6:59 AM CDT (4/26)
Length of Visible Light 15h 26m
Length of Day
14h 17m
Full, 99% of the Moon is Illuminated
Apr 26
Full
May 2
Last Quarter
May 9
New
May 17
First Quarter
May 24
Full

Hourly Weather History & Observations

Time (CDT) Temp. Windchill Dew Point Humidity Pressure Visibility Wind Dir Wind Speed Gust Speed Precip Events Conditions
12:54 AM 34.0 °F 28.0 °F 30.9 °F 89% 29.90 in 10.0 mi SW 6.9 mph - N/A   Clear
1:54 AM 35.1 °F - 30.0 °F 82% 29.91 in 10.0 mi Calm Calm - N/A   Clear
2:54 AM 35.1 °F 26.4 °F 28.9 °F 78% 29.89 in 10.0 mi SW 12.7 mph - N/A   Clear
3:54 AM 37.0 °F 28.9 °F 30.0 °F 76% 29.90 in 10.0 mi SW 12.7 mph - N/A   Clear
4:54 AM 36.0 °F 27.5 °F 30.0 °F 79% 29.91 in 10.0 mi SW 12.7 mph - N/A   Clear
5:54 AM 37.9 °F 30.9 °F 30.0 °F 73% 29.93 in 10.0 mi SW 10.4 mph - N/A   Scattered Clouds
6:54 AM 42.1 °F 35.7 °F 28.0 °F 58% 29.95 in 10.0 mi SW 11.5 mph - N/A   Clear
7:54 AM 42.1 °F 35.2 °F 28.9 °F 60% 29.97 in 10.0 mi SW 12.7 mph - N/A   Clear
9:54 AM 48.9 °F - 30.9 °F 50% 30.01 in 10.0 mi WSW 11.5 mph - N/A   Clear
10:54 AM 48.0 °F - 32.0 °F 54% 30.04 in 10.0 mi North 10.4 mph - N/A   Clear
11:54 AM 50.0 °F - 33.8 °F 54% 30.00 in 10.0 mi Calm Calm - N/A   Clear
12:54 PM 55.0 °F - 37.9 °F 53% 30.04 in 10.0 mi Calm Calm - N/A   Clear
1:54 PM 57.9 °F - 35.1 °F 42% 30.03 in 10.0 mi SW 6.9 mph - N/A   Clear
2:54 PM 63.0 °F - 30.9 °F 30% 30.01 in 10.0 mi South 6.9 mph - N/A   Clear
3:54 PM 60.1 °F - 37.0 °F 42% 30.00 in 10.0 mi SE 6.9 mph - N/A   Clear
4:54 PM 61.0 °F - 39.9 °F 46% 29.99 in 10.0 mi ESE 3.5 mph - N/A   Clear
5:54 PM 60.1 °F - 42.1 °F 51% 29.97 in 10.0 mi ESE 9.2 mph - N/A   Clear
6:54 PM 55.9 °F - 41.0 °F 57% 29.96 in 10.0 mi East 9.2 mph - N/A   Clear
7:54 PM 54.0 °F - 39.9 °F 59% 29.95 in 10.0 mi ESE 5.8 mph - N/A   Clear
8:54 PM 57.0 °F - 36.0 °F 45% 29.94 in 10.0 mi SSE 3.5 mph - N/A   Clear
9:54 PM 51.1 °F - 35.1 °F 54% 29.96 in 10.0 mi SSW 8.1 mph - N/A   Clear
10:54 PM 52.0 °F - 32.0 °F 47% 29.95 in 10.0 mi SSW 8.1 mph - N/A   Clear
11:54 PM 51.1 °F - 30.9 °F 46% 29.94 in 10.0 mi SSE 4.6 mph - N/A   Mostly Cloudy